EW3649 Weather Reports


time (UTC)temp
C
wind
direction
speed
KPH
gust
KPH
rain 1hr
cm
rain 24hr
cm
rain mn
cm
humidity
%
barometer
mb
20260906195005 21 289 0.0 8.0 0.00 0.00 0.00 57 1015.2
20260906194504 21 289 0.0 11.3 0.00 0.00 0.00 59 1015.2
20260906194004 20 288 0.0 11.3 0.00 0.00 0.00 59 1015.2
20260906193504 20 288 0.0 4.8 0.00 0.00 0.00 58 1015.2
20260906193005 20 288 0.0 1.6 0.00 0.00 0.00 59 1015.2
20260906192504 20 288 0.0 1.6 0.00 0.00 0.00 59 1015.3
20260906192006 20 288 0.0 4.8 0.00 0.00 0.00 61 1015.3
20260906191005 20 288 0.0 1.6 0.00 0.00 0.00 61 1015.5
20260906190504 20 288 0.0 1.6 0.00 0.00 0.00 63 1015.5
20260906190005 20 0 0.0 0.0 0.00 0.00 0.00 65 1015.6
20260906185005 19 0 0.0 0.0 0.00 0.00 0.00 64 1015.7
20260906184505 19 0 0.0 0.0 0.00 0.00 0.00 65 1015.8
20260906184005 19 0 0.0 0.0 0.00 0.00 0.00 66 1015.7
20260906183504 18 288 0.0 3.2 0.00 0.00 0.00 65 1015.9
20260906182005 18 288 0.0 8.0 0.00 0.00 0.00 66 1015.9
20260906181505 18 286 0.0 11.3 0.00 0.00 0.00 67 1015.8
20260906175006 18 270 0.0 11.3 0.00 0.00 0.00 69 1015.7
20260906174505 18 257 0.0 1.6 0.00 0.00 0.00 69 1015.7
20260906174004 18 257 0.0 8.0 0.00 0.00 0.00 69 1015.7
20260906173505 18 256 0.0 8.0 0.00 0.00 0.00 68 1015.8
20260906173005 18 0 0.0 0.0 0.00 0.00 0.00 69 1015.9
20260906172504 18 0 0.0 0.0 0.00 0.00 0.00 70 1015.9
20260906172005 17 0 0.0 0.0 0.00 0.00 0.00 69 1016.0
20260906171504 17 0 0.0 0.0 0.00 0.00 0.00 72 1016.1
20260906171005 17 0 0.0 0.0 0.00 0.00 0.00 73 1016.2
20260906170505 16 0 0.0 0.0 0.00 0.00 0.00 73 1016.2
20260906170006 16 0 0.0 0.0 0.00 0.00 0.00 74 1016.3
20260906165504 16 0 0.0 0.0 0.00 0.00 0.00 75 1016.3
20260906165005 16 0 0.0 0.0 0.00 0.00 0.00 76 1016.3
20260906164504 15 0 0.0 0.0 0.00 0.00 0.00 78 1016.4
20260906164006 15 0 0.0 0.0 0.00 0.00 0.00 78 1016.3
20260906163504 15 0 0.0 0.0 0.00 0.00 0.00 79 1016.3
20260906162006 14 0 0.0 0.0 0.00 0.00 0.00 79 1016.4
20260906161504 14 0 0.0 0.0 0.00 0.00 0.00 82 1016.4
20260906161004 14 0 0.0 0.0 0.00 0.00 0.00 85 1016.4
20260906160504 13 0 0.0 0.0 0.00 0.00 0.00 87 1016.3
20260906160004 12 0 0.0 0.0 0.00 0.00 0.00 88 1016.3
20260906154504 11 0 0.0 0.0 0.00 0.00 0.00 91 1016.2
20260906153504 11 0 0.0 0.0 0.00 0.00 0.00 92 1016.1
20260906153005 11 0 0.0 0.0 0.00 0.00 0.00 92 1016.0
20260906152503 10 0 0.0 0.0 0.00 0.00 0.00 93 1015.9
20260906152006 10 0 0.0 0.0 0.00 0.00 0.00 93 1015.9
20260906151505 10 0 0.0 0.0 0.00 0.00 0.00 94 1015.9
20260906151005 10 0 0.0 0.0 0.00 0.00 0.00 94 1015.9
20260906150504 10 0 0.0 0.0 0.00 0.00 0.00 94 1015.9
20260906145504 9 0 0.0 0.0 0.00 0.00 0.00 94 1016.0
20260906145005 8 0 0.0 0.0 0.00 0.00 0.00 94 1015.9
20260906144504 8 0 0.0 0.0 0.00 0.00 0.00 93 1015.9
20260906144005 8 0 0.0 0.0 0.00 0.00 0.00 93 1015.9
20260906143004 8 0 0.0 0.0 0.00 0.00 0.00 93 1015.9
20260906142504 8 0 0.0 0.0 0.00 0.00 0.00 93 1016.0
20260906142004 8 0 0.0 0.0 0.00 0.00 0.00 92 1015.9
20260906141505 8 0 0.0 0.0 0.00 0.00 0.00 92 1015.9
20260906141004 8 0 0.0 0.0 0.00 0.00 0.00 92 1015.8
20260906140505 8 0 0.0 0.0 0.00 0.00 0.00 92 1015.9
20260906140005 8 0 0.0 0.0 0.00 0.00 0.00 92 1015.8
20260906135005 8 0 0.0 0.0 0.00 0.00 0.00 92 1015.8
20260906134505 8 0 0.0 0.0 0.00 0.00 0.00 92 1015.7
20260906134005 8 0 0.0 0.0 0.00 0.00 0.00 92 1015.7
20260906133504 8 0 0.0 0.0 0.00 0.00 0.00 92 1015.8
20260906133004 8 0 0.0 0.0 0.00 0.00 0.00 92 1015.7
20260906132504 8 0 0.0 0.0 0.00 0.00 0.00 92 1015.7
20260906132005 8 0 0.0 0.0 0.00 0.00 0.00 92 1015.7
20260906131004 8 0 0.0 0.0 0.00 0.00 0.00 92 1015.8
20260906130504 8 0 0.0 0.0 0.00 0.00 0.00 92 1015.8
20260906130005 8 0 0.0 0.0 0.00 0.00 0.00 92 1015.9
20260906125504 8 0 0.0 0.0 0.00 0.00 0.00 92 1015.8
20260906125005 8 0 0.0 0.0 0.00 0.00 0.00 92 1015.8
20260906124005 8 0 0.0 0.0 0.00 0.00 0.00 92 1015.8
20260906123504 8 0 0.0 0.0 0.00 0.00 0.00 92 1015.8
20260906123005 9 0 0.0 0.0 0.00 0.00 0.00 92 1015.8
20260906122504 9 0 0.0 0.0 0.00 0.00 0.00 92 1015.9
20260906122004 9 0 0.0 0.0 0.00 0.00 0.00 92 1015.8
20260906121505 9 0 0.0 0.0 0.00 0.00 0.00 92 1015.8
20260906121005 9 0 0.0 0.0 0.00 0.00 0.00 92 1015.8
20260906120504 9 0 0.0 0.0 0.00 0.00 0.00 92 1015.8
20260906120005 9 0 0.0 0.0 0.00 0.00 0.00 92 1015.7
20260906115504 9 0 0.0 0.0 0.00 0.00 0.00 92 1015.7
20260906115005 9 0 0.0 0.0 0.00 0.00 0.00 92 1015.6
20260906114504 9 0 0.0 0.0 0.00 0.00 0.00 92 1015.6
20260906114006 9 0 0.0 0.0 0.00 0.00 0.00 92 1015.7
20260906113503 9 0 0.0 0.0 0.00 0.00 0.00 92 1015.7
20260906113005 9 0 0.0 0.0 0.00 0.00 0.00 91 1015.8
20260906112504 9 0 0.0 0.0 0.00 0.00 0.00 91 1015.9
20260906112004 9 0 0.0 0.0 0.00 0.00 0.00 91 1016.0
20260906111504 9 0 0.0 0.0 0.00 0.00 0.00 91 1016.0
20260906111004 10 0 0.0 0.0 0.00 0.00 0.00 91 1016.0
20260906110504 10 0 0.0 0.0 0.00 0.00 0.00 91 1016.0
20260906110005 10 0 0.0 0.0 0.00 0.00 0.00 91 1015.9
20260906105504 10 0 0.0 0.0 0.00 0.00 0.00 91 1015.9
20260906104503 10 0 0.0 0.0 0.00 0.00 0.00 91 1015.8
20260906103004 10 0 0.0 0.0 0.00 0.00 0.00 91 1015.8
20260906102004 10 0 0.0 0.0 0.00 0.00 0.00 91 1015.9
20260906101504 10 247 0.0 1.6 0.00 0.00 0.00 92 1015.9
20260906101004 10 247 0.0 1.6 0.00 0.00 0.00 92 1015.9
20260906100503 10 0 0.0 0.0 0.00 0.00 0.00 91 1015.9
20260906100004 10 0 0.0 0.0 0.00 0.00 0.00 91 1015.8
20260906095504 10 0 0.0 0.0 0.00 0.00 0.00 91 1015.9
20260906095005 10 0 0.0 0.0 0.00 0.00 0.00 91 1015.9
20260906094504 10 0 0.0 0.0 0.00 0.00 0.00 92 1016.0
20260906094005 10 0 0.0 0.0 0.00 0.00 0.00 91 1015.9
20260906093503 10 0 0.0 0.0 0.00 0.00 0.00 91 1015.9
20260906093005 10 0 0.0 0.0 0.00 0.00 0.00 91 1015.9
20260906092503 10 0 0.0 0.0 0.00 0.00 0.00 91 1015.9
20260906092004 10 0 0.0 0.0 0.00 0.00 0.00 90 1015.8
20260906091504 10 0 0.0 0.0 0.00 0.00 0.00 90 1015.8
20260906091004 10 0 0.0 0.0 0.00 0.00 0.00 90 1015.8
20260906090504 10 0 0.0 0.0 0.00 0.00 0.00 90 1015.8
20260906090005 10 0 0.0 0.0 0.00 0.00 0.00 90 1015.8
20260906085504 10 0 0.0 0.0 0.00 0.00 0.00 90 1015.9
20260906085005 10 0 0.0 0.0 0.00 0.00 0.00 90 1015.9
20260906084503 10 0 0.0 0.0 0.00 0.00 0.00 90 1015.8
20260906084004 10 0 0.0 0.0 0.00 0.00 0.00 90 1015.8
20260906083004 10 0 0.0 0.0 0.00 0.00 0.00 90 1015.8
20260906082503 11 0 0.0 0.0 0.00 0.00 0.00 90 1015.9
20260906082004 11 0 0.0 0.0 0.00 0.00 0.00 90 1015.9
20260906081504 11 0 0.0 0.0 0.00 0.00 0.00 90 1015.9
20260906081004 11 0 0.0 0.0 0.00 0.00 0.00 90 1015.8
20260906080504 11 0 0.0 0.0 0.00 0.00 0.00 89 1015.8
20260906075503 11 0 0.0 0.0 0.00 0.00 0.00 89 1015.8
20260906075004 11 0 0.0 0.0 0.00 0.00 0.00 89 1015.9
20260906074504 11 0 0.0 0.0 0.00 0.00 0.00 88 1015.9
20260906073503 11 0 0.0 0.0 0.00 0.00 0.00 89 1016.0
20260906073004 11 0 0.0 0.0 0.00 0.00 0.00 89 1015.9
20260906072503 11 0 0.0 0.0 0.00 0.00 0.00 89 1016.0
20260906072004 11 0 0.0 0.0 0.00 0.00 0.00 88 1016.1
20260906071503 11 0 0.0 0.0 0.00 0.00 0.00 88 1016.2
20260906071004 11 0 0.0 0.0 0.00 0.00 0.00 88 1016.3
20260906070504 11 0 0.0 0.0 0.00 0.00 0.00 88 1016.2
20260906070007 11 0 0.0 0.0 0.00 0.00 0.00 88 1016.2
20260906065504 11 0 0.0 0.0 0.00 0.00 0.00 88 1016.2
20260906064504 11 0 0.0 0.0 0.00 0.00 0.00 87 1016.3
20260906064004 12 0 0.0 0.0 0.00 0.00 0.00 87 1016.3
20260906063505 12 0 0.0 0.0 0.00 0.00 0.00 86 1016.3
20260906063006 12 0 0.0 0.0 0.00 0.00 0.00 86 1016.3
20260906062505 12 0 0.0 0.0 0.00 0.00 0.00 86 1016.2
20260906062006 12 0 0.0 0.0 0.00 0.00 0.00 86 1016.2
20260906061006 12 0 0.0 0.0 0.00 0.00 0.00 86 1016.2
20260906060505 12 0 0.0 0.0 0.00 0.00 0.00 86 1016.3
20260906054006 12 0 0.0 0.0 0.00 0.00 0.00 85 1016.4
20260906053505 12 0 0.0 0.0 0.00 0.00 0.00 85 1016.4
20260906053006 12 0 0.0 0.0 0.00 0.00 0.00 84 1016.5
20260906052506 12 0 0.0 0.0 0.00 0.00 0.00 84 1016.5
20260906050505 13 0 0.0 0.0 0.00 0.00 0.00 83 1016.6
20260906050005 13 0 0.0 0.0 0.00 0.00 0.00 83 1016.6
20260906045506 13 0 0.0 0.0 0.00 0.00 0.00 82 1016.6
20260906045005 13 0 0.0 0.0 0.00 0.00 0.00 82 1016.6
20260906043505 13 0 0.0 0.0 0.00 0.00 0.00 81 1016.6
20260906043006 14 0 0.0 0.0 0.00 0.00 0.00 80 1016.6
20260906042506 14 0 0.0 0.0 0.00 0.00 0.00 80 1016.6
20260906042005 14 0 0.0 0.0 0.00 0.00 0.00 80 1016.6
20260906041006 15 0 0.0 0.0 0.00 0.00 0.00 78 1016.7
20260906040505 15 0 0.0 0.0 0.00 0.00 0.00 78 1016.7
20260906040006 15 0 0.0 0.0 0.00 0.00 0.00 78 1016.7
20260906035505 15 0 0.0 0.0 0.00 0.00 0.00 77 1016.7
20260906034504 15 0 0.0 0.0 0.00 0.00 0.00 77 1016.6
20260906034005 15 0 0.0 0.0 0.00 0.00 0.00 76 1016.6
20260906033006 15 0 0.0 0.0 0.00 0.00 0.00 74 1016.5
20260906032505 16 0 0.0 0.0 0.00 0.00 0.00 74 1016.5
20260906031505 16 0 0.0 0.0 0.00 0.00 0.00 73 1016.4
20260906030505 16 0 0.0 0.0 0.00 0.00 0.00 71 1016.4
20260906030005 17 0 0.0 0.0 0.00 0.00 0.00 71 1016.4
20260906025005 17 0 0.0 0.0 0.00 0.00 0.00 68 1016.3
20260906024504 17 0 0.0 0.0 0.00 0.00 0.00 67 1016.3
20260906023505 17 0 0.0 0.0 0.00 0.00 0.00 66 1016.2
20260906022505 18 0 0.0 0.0 0.00 0.00 0.00 64 1016.1
20260906022006 18 0 0.0 0.0 0.00 0.00 0.00 64 1016.1
20260906021505 18 0 0.0 0.0 0.00 0.00 0.00 63 1016.2
20260906020505 19 0 0.0 0.0 0.00 0.00 0.00 62 1016.2
20260906020005 19 0 0.0 0.0 0.00 0.00 0.00 60 1016.2
20260906015504 19 0 0.0 0.0 0.00 0.00 0.00 60 1016.2
20260906015005 19 0 0.0 0.0 0.00 0.00 0.00 58 1016.2
20260906014505 19 0 0.0 0.0 0.00 0.00 0.00 59 1016.1
20260906013505 19 0 0.0 0.0 0.00 0.00 0.00 59 1016.0
20260906012006 19 0 0.0 0.0 0.00 0.00 0.00 59 1016.1
20260906011504 20 0 0.0 0.0 0.00 0.00 0.00 59 1016.0
20260906011005 20 0 0.0 0.0 0.00 0.00 0.00 58 1016.0
20260906010505 20 0 0.0 0.0 0.00 0.00 0.00 59 1016.0
20260906005505 20 0 0.0 0.0 0.00 0.00 0.00 60 1016.0
20260906005005 20 0 0.0 0.0 0.00 0.00 0.00 61 1015.9
20260906004504 20 0 0.0 0.0 0.00 0.00 0.00 59 1015.9
20260906004005 20 0 0.0 0.0 0.00 0.00 0.00 59 1015.9
20260906003504 20 0 0.0 0.0 0.00 0.00 0.00 59 1015.9
20260906003005 20 0 0.0 0.0 0.00 0.00 0.00 58 1015.9
20260906002505 20 0 0.0 0.0 0.00 0.00 0.00 58 1015.9
20260906002005 20 0 0.0 0.0 0.00 0.00 0.00 58 1015.9
20260906001505 20 0 0.0 0.0 0.00 0.00 0.00 58 1015.9
20260906001006 20 0 0.0 0.0 0.00 0.00 0.00 58 1015.9
20260905235504 20 0 0.0 0.0 0.00 0.00 0.00 58 1016.0
20260905235005 20 0 0.0 0.0 0.00 0.00 0.00 56 1016.1
20260905234505 20 0 0.0 0.0 0.00 0.00 0.00 56 1016.1
20260905234006 20 0 0.0 0.0 0.00 0.00 0.00 57 1016.1
20260905233505 20 0 0.0 0.0 0.00 0.00 0.00 61 1016.1
20260905233005 19 0 0.0 0.0 0.00 0.00 0.00 63 1016.1
20260905232504 19 0 0.0 0.0 0.00 0.00 0.00 64 1016.1
20260905231504 20 0 0.0 0.0 0.00 0.00 0.00 62 1016.1
20260905231006 19 0 0.0 0.0 0.00 0.00 0.00 61 1016.2
20260905230005 20 0 0.0 0.0 0.00 0.00 0.00 60 1016.4
20260905225504 20 0 0.0 0.0 0.00 0.00 0.00 60 1016.4
20260905225006 20 0 0.0 0.0 0.00 0.00 0.00 62 1016.3
20260905224504 20 0 0.0 0.0 0.00 0.00 0.00 60 1016.4
20260905224005 19 0 0.0 0.0 0.00 0.00 0.00 62 1016.5
20260905223504 19 0 0.0 0.0 0.00 0.00 0.00 60 1016.5
20260905223005 19 0 0.0 0.0 0.00 0.00 0.00 60 1016.6
20260905222505 19 0 0.0 0.0 0.00 0.00 0.00 64 1016.7
20260905222005 18 0 0.0 0.0 0.00 0.00 0.00 63 1016.8
20260905221505 18 0 0.0 0.0 0.00 0.00 0.00 65 1016.8
20260905221004 18 0 0.0 0.0 0.00 0.00 0.00 67 1016.9
20260905220504 18 0 0.0 0.0 0.00 0.00 0.00 66 1017.0
20260905220005 17 0 0.0 0.0 0.00 0.00 0.00 67 1017.0
20260905215505 17 0 0.0 0.0 0.00 0.00 0.00 67 1017.1
20260905215005 17 0 0.0 0.0 0.00 0.00 0.00 70 1017.1
20260905214505 17 247 0.0 1.6 0.00 0.00 0.00 68 1017.2
20260905214005 17 248 0.0 1.6 0.00 0.00 0.00 69 1017.2
20260905213505 17 248 0.0 3.2 0.00 0.00 0.00 71 1017.3
20260905213005 16 248 0.0 3.2 0.00 0.00 0.00 71 1017.2
20260905212505 16 0 0.0 0.0 0.00 0.00 0.00 72 1017.3
20260905211505 16 0 0.0 0.0 0.00 0.00 0.00 73 1017.3
20260905210504 16 0 0.0 0.0 0.00 0.00 0.00 74 1017.4
20260905205504 16 0 0.0 0.0 0.00 0.00 0.00 75 1017.5
20260905205005 16 0 0.0 0.0 0.00 0.00 0.00 74 1017.4
20260905204504 15 0 0.0 0.0 0.00 0.00 0.00 73 1017.5
20260905204005 15 0 0.0 0.0 0.00 0.00 0.00 75 1017.5
20260905203004 15 0 0.0 0.0 0.00 0.00 0.00 77 1017.6
20260905202505 15 0 0.0 0.0 0.00 0.00 0.00 77 1017.6
20260905202005 15 0 0.0 0.0 0.00 0.00 0.00 77 1017.6
20260905201504 15 0 0.0 0.0 0.00 0.00 0.00 76 1017.6
20260905201005 15 0 0.0 0.0 0.00 0.00 0.00 77 1017.6
20260905200005 15 0 0.0 0.0 0.00 0.00 0.00 78 1017.7
20260905195504 15 0 0.0 0.0 0.00 0.00 0.00 79 1017.7